Showing default

IRIDIUM 145, 43253

Orbit data source: Space-Track

IRIDIUM 145, 43253 is a payload satellite owned by Iridium (US) in LEO that was launched on Fri, 30 Mar 2018 UTC via an FALCON 9 launch vehicle from the Air Force Western Test Range (AFWTR). Payload-class satellites include a variety of spacecraft equipped with specific instruments for various scientific and technological missions. These include communications satellites like Starlink; space stations such as the ISS; scientific satellites like the Hubble; Earth observation satellites from companies like Planet Labs, Umbra, and HawkEye 360; GPS; miniature CubeSats for education and research; and military/defense satellites.

Loading next visibility...
Identifier
43253, 2018-030E
Orbit
LEO
Country
Flag of USUS
Related business
Manufacturer
OATK SSG Gilbert
Mission
Operational Commercial Communications
Bus & Motor
ELITEBUS, Unknown motor
Mass
860 kg wet, 700 kg dry
Launch date (UTC)
2018-03-30 (8 years ago)
Launch vehicle
FALCON 9
Launch site
Air Force Western Test Range (AFWTR)
Object type
Payload
Rocket body
Debris
Shape & HBR
Trap Box + 2 Pan, 4.8 m
Radar Cross Section
10.154 m², Large (>1 m²)

Expand to show TLE details & history
Last TLE update: 10 hours ago

TLE from 10 hours ago
0 IRIDIUM 145
1 43253U 18030E   26035.35327971  .00000354  00000-0  11919-3 0  9998
2 43253  86.4008 345.9380 0001922  78.2990 281.8421 14.34218420411085
Epoch: 2026-02-04T08:28Z
TLE epoch observation values (Epoch: 2026-02-04T08:28:43.366Z)
Latitude
-0.00009°
Longitude
84.23622°
Altitude
780.434 km
Speed
7.464 km/s
True Right ascension
23h 03m 45s
True Declination
0° 00' 00"
Sunlit
Object was in daylight at epoch
Visualization orbit readout
Latitude
Unknown
Longitude
Unknown
Altitude
Unknown
Speed
Unknown
Apparent Right ascension
Unknown
Apparent Declination
Unknown
Sunlit
N/A
Visualization observer readout
Local Sidereal Time
20:16:10
Azimuth
Unknown
Elevation
Unknown
Doppler factor
Unknown
Orbital elements
Apogee altitude
776.004 km
Perigee altitude
773.255 km
Semi-major axis
7,152.766 km
Eccentricity
0.00019
Inclination
86.4008°
RAAN
345.938°
Arg. of periapsis
78.299°
True anomaly
281.82054°
Mean anomaly
281.8421°
Eccentric anomaly
281.83132°
Mean motion
3.58783 °/min
Orbital period
100.34 mins
BSTAR
0.00011919
Loading maneuver chart data...
Computing Atmospheric mass density...
Loading historical data...
Loading historical data...
Loading historical data...
Loading historical data...
Loading historical data...
Loading historical data...
Loading historical data...

Documentation

Showing up to 5 results
|